Time,TemperatureF,DewpointF,PressureIn,WindDirection,WindDirectionDegrees,WindSpeedMPH,WindSpeedGustMPH,Humidity,HourlyPrecipIn,Conditions,Clouds,dailyrainin,SoftwareType,DateUTC
2013-05-06 00:01:00,52.2,51.1,29.47,NW,304,3.0,5.0,96,0.00,,,0.02,Wunderground v.1.15,2013-05-06 05:01:00,
2013-05-06 00:06:00,52.1,50.7,29.47,NW,326,4.0,11.0,95,0.00,,,0.02,Wunderground v.1.15,2013-05-06 05:06:00,
2013-05-06 00:11:00,52.0,50.3,29.47,North,11,4.0,7.0,94,0.00,,,0.02,Wunderground v.1.15,2013-05-06 05:11:00,
2013-05-06 00:16:00,52.1,50.4,29.48,North,354,3.0,7.0,94,0.00,,,0.02,Wunderground v.1.15,2013-05-06 05:16:00,
2013-05-06 00:21:00,52.0,50.3,29.48,NNE,16,6.0,7.0,94,0.00,,,0.02,Wunderground v.1.15,2013-05-06 05:21:00,
2013-05-06 00:26:00,52.0,50.3,29.48,NNW,329,2.0,9.0,94,0.00,,,0.02,Wunderground v.1.15,2013-05-06 05:26:00,
2013-05-06 00:31:00,52.0,50.3,29.48,NNE,20,5.0,6.0,94,0.00,,,0.02,Wunderground v.1.15,2013-05-06 05:31:00,
2013-05-06 00:36:00,52.0,50.3,29.48,North,5,4.0,8.0,94,0.00,,,0.02,Wunderground v.1.15,2013-05-06 05:36:00,
2013-05-06 00:41:00,51.9,49.9,29.47,North,354,3.0,6.0,93,0.00,,,0.02,Wunderground v.1.15,2013-05-06 05:41:00,
2013-05-06 00:46:00,51.9,49.9,29.47,North,11,1.0,6.0,93,0.00,,,0.02,Wunderground v.1.15,2013-05-06 05:46:00,
2013-05-06 00:51:00,51.9,49.9,29.47,North,4,3.0,6.0,93,0.00,,,0.02,Wunderground v.1.15,2013-05-06 05:51:00,
2013-05-06 00:56:00,51.8,49.8,29.47,NNW,330,3.0,7.0,93,0.00,,,0.02,Wunderground v.1.15,2013-05-06 05:56:00,
2013-05-06 01:01:00,51.8,49.8,29.47,North,350,3.0,5.0,93,0.00,,,0.02,Wunderground v.1.15,2013-05-06 06:01:00,
2013-05-06 01:06:00,51.7,49.7,29.46,NNW,329,3.0,9.0,93,0.00,,,0.02,Wunderground v.1.15,2013-05-06 06:06:00,
2013-05-06 01:11:00,51.8,49.8,29.46,NE,46,5.0,7.0,93,0.00,,,0.02,Wunderground v.1.15,2013-05-06 06:11:00,
2013-05-06 01:16:00,51.7,49.7,29.46,NW,326,2.0,7.0,93,0.00,,,0.02,Wunderground v.1.15,2013-05-06 06:16:00,
2013-05-06 01:21:00,51.8,49.8,29.46,NNW,329,4.0,5.0,93,0.00,,,0.02,Wunderground v.1.15,2013-05-06 06:21:00,
2013-05-06 01:26:00,51.7,49.7,29.46,NW,312,4.0,7.0,93,0.00,,,0.02,Wunderground v.1.15,2013-05-06 06:26:00,
2013-05-06 01:31:00,51.7,49.7,29.45,NNE,20,7.0,8.0,93,0.00,,,0.02,Wunderground v.1.15,2013-05-06 06:31:00,
2013-05-06 01:36:00,51.6,49.6,29.45,NW,323,5.0,8.0,93,0.00,,,0.02,Wunderground v.1.15,2013-05-06 06:36:00,
2013-05-06 01:41:00,51.6,49.6,29.45,NW,316,2.0,4.0,93,0.00,,,0.02,Wunderground v.1.15,2013-05-06 06:41:00,
2013-05-06 01:46:00,51.5,49.5,29.45,NW,325,5.0,9.0,93,0.00,,,0.02,Wunderground v.1.15,2013-05-06 06:46:00,
2013-05-06 01:51:00,51.5,49.8,29.45,NW,321,4.0,6.0,94,0.00,,,0.02,Wunderground v.1.15,2013-05-06 06:51:00,
2013-05-06 01:56:00,51.5,49.8,29.45,West,281,3.0,8.0,94,0.00,,,0.02,Wunderground v.1.15,2013-05-06 06:56:00,
2013-05-06 02:01:00,51.5,49.8,29.45,WNW,302,4.0,8.0,94,0.00,,,0.02,Wunderground v.1.15,2013-05-06 07:01:00,
2013-05-06 02:06:00,51.4,49.4,29.45,West,274,1.0,8.0,93,0.00,,,0.02,Wunderground v.1.15,2013-05-06 07:06:00,
2013-05-06 02:11:00,51.3,49.3,29.46,NE,41,4.0,9.0,93,0.00,,,0.02,Wunderground v.1.15,2013-05-06 07:11:00,
2013-05-06 02:16:00,51.3,49.3,29.45,WNW,302,3.0,10.0,93,0.00,,,0.02,Wunderground v.1.15,2013-05-06 07:16:00,
2013-05-06 02:21:00,51.2,49.0,29.45,NW,321,4.0,5.0,92,0.00,,,0.02,Wunderground v.1.15,2013-05-06 07:21:00,
2013-05-06 02:26:00,51.2,49.0,29.45,NNW,332,5.0,10.0,92,0.00,,,0.02,Wunderground v.1.15,2013-05-06 07:26:00,
2013-05-06 02:31:00,51.3,48.5,29.45,North,8,6.0,10.0,90,0.00,,,0.02,Wunderground v.1.15,2013-05-06 07:31:00,
2013-05-06 02:36:00,51.4,48.6,29.45,NW,317,7.0,10.0,90,0.00,,,0.02,Wunderground v.1.15,2013-05-06 07:36:00,
2013-05-06 02:41:00,51.3,48.8,29.46,NNW,344,7.0,8.0,91,0.00,,,0.02,Wunderground v.1.15,2013-05-06 07:41:00,
2013-05-06 02:46:00,51.3,48.8,29.46,NW,308,6.0,9.0,91,0.00,,,0.02,Wunderground v.1.15,2013-05-06 07:46:00,
2013-05-06 02:51:00,51.1,48.6,29.45,NNW,338,7.0,7.0,91,0.00,,,0.02,Wunderground v.1.15,2013-05-06 07:51:00,
2013-05-06 02:56:00,51.0,48.8,29.45,NW,316,4.0,9.0,92,0.00,,,0.02,Wunderground v.1.15,2013-05-06 07:56:00,
2013-05-06 03:01:00,50.9,48.7,29.46,NW,304,4.0,7.0,92,0.00,,,0.02,Wunderground v.1.15,2013-05-06 08:01:00,
2013-05-06 03:06:00,50.9,48.7,29.45,NW,323,8.0,9.0,92,0.00,,,0.02,Wunderground v.1.15,2013-05-06 08:06:00,
2013-05-06 03:11:00,50.9,48.7,29.45,NW,322,1.0,6.0,92,0.00,,,0.02,Wunderground v.1.15,2013-05-06 08:11:00,
2013-05-06 03:16:00,50.9,48.7,29.46,NW,322,3.0,7.0,92,0.00,,,0.02,Wunderground v.1.15,2013-05-06 08:16:00,
2013-05-06 03:21:00,50.9,48.7,29.46,WNW,302,6.0,6.0,92,0.00,,,0.02,Wunderground v.1.15,2013-05-06 08:21:00,
2013-05-06 03:26:00,50.8,48.6,29.46,WNW,295,5.0,8.0,92,0.00,,,0.02,Wunderground v.1.15,2013-05-06 08:26:00,
2013-05-06 03:31:00,50.7,48.5,29.46,NNW,342,4.0,7.0,92,0.00,,,0.02,Wunderground v.1.15,2013-05-06 08:31:00,
2013-05-06 03:36:00,50.8,48.6,29.46,NNW,330,5.0,8.0,92,0.00,,,0.02,Wunderground v.1.15,2013-05-06 08:36:00,
2013-05-06 03:41:00,50.8,48.6,29.46,NW,311,3.0,4.0,92,0.00,,,0.02,Wunderground v.1.15,2013-05-06 08:41:00,
2013-05-06 03:46:00,50.8,48.6,29.46,NW,314,4.0,11.0,92,0.00,,,0.02,Wunderground v.1.15,2013-05-06 08:46:00,
2013-05-06 03:51:00,50.7,48.5,29.46,NNW,342,5.0,7.0,92,0.00,,,0.02,Wunderground v.1.15,2013-05-06 08:51:00,
2013-05-06 03:56:00,50.6,48.4,29.46,NNW,344,4.0,10.0,92,0.00,,,0.02,Wunderground v.1.15,2013-05-06 08:56:00,
2013-05-06 04:01:00,50.6,48.7,29.46,North,360,2.0,6.0,93,0.00,,,0.02,Wunderground v.1.15,2013-05-06 09:01:00,
2013-05-06 04:06:00,50.5,48.3,29.46,NNW,342,3.0,8.0,92,0.00,,,0.02,Wunderground v.1.15,2013-05-06 09:06:00,
2013-05-06 04:11:00,50.4,48.2,29.46,NW,311,4.0,5.0,92,0.00,,,0.02,Wunderground v.1.15,2013-05-06 09:11:00,
2013-05-06 04:16:00,50.3,48.1,29.46,WNW,295,3.0,8.0,92,0.00,,,0.02,Wunderground v.1.15,2013-05-06 09:16:00,
2013-05-06 04:21:00,50.2,48.0,29.45,WNW,294,4.0,6.0,92,0.00,,,0.02,Wunderground v.1.15,2013-05-06 09:21:00,
2013-05-06 04:26:00,50.1,47.9,29.45,NW,311,4.0,9.0,92,0.00,,,0.02,Wunderground v.1.15,2013-05-06 09:26:00,
2013-05-06 04:31:00,50.1,47.9,29.45,NW,311,1.0,4.0,92,0.00,,,0.02,Wunderground v.1.15,2013-05-06 09:31:00,
2013-05-06 04:36:00,50.1,47.9,29.45,WNW,293,1.0,7.0,92,0.00,,,0.02,Wunderground v.1.15,2013-05-06 09:36:00,
2013-05-06 04:41:00,50.1,47.9,29.45,West,276,1.0,6.0,92,0.00,,,0.02,Wunderground v.1.15,2013-05-06 09:41:00,
2013-05-06 04:46:00,50.1,47.6,29.45,NW,321,4.0,7.0,91,0.00,,,0.02,Wunderground v.1.15,2013-05-06 09:46:00,
2013-05-06 04:51:00,50.2,47.7,29.45,NW,308,6.0,7.0,91,0.00,,,0.02,Wunderground v.1.15,2013-05-06 09:51:00,
2013-05-06 04:56:00,50.3,47.8,29.45,NW,312,7.0,11.0,91,0.00,,,0.02,Wunderground v.1.15,2013-05-06 09:56:00,
2013-05-06 05:01:00,50.2,47.7,29.45,NW,323,5.0,8.0,91,0.00,,,0.02,Wunderground v.1.15,2013-05-06 10:01:00,
2013-05-06 05:06:00,50.2,47.7,29.45,North,3,4.0,9.0,91,0.00,,,0.02,Wunderground v.1.15,2013-05-06 10:06:00,
2013-05-06 05:11:00,50.1,47.9,29.45,NW,313,3.0,6.0,92,0.00,,,0.02,Wunderground v.1.15,2013-05-06 10:11:00,
2013-05-06 05:16:00,50.1,47.9,29.45,NNW,335,3.0,8.0,92,0.00,,,0.02,Wunderground v.1.15,2013-05-06 10:16:00,
2013-05-06 05:21:00,50.1,47.9,29.45,WSW,257,9.0,9.0,92,0.00,,,0.02,Wunderground v.1.15,2013-05-06 10:21:00,
2013-05-06 05:26:00,50.0,47.5,29.45,WNW,284,6.0,10.0,91,0.00,,,0.02,Wunderground v.1.15,2013-05-06 10:26:00,
2013-05-06 05:31:00,50.0,47.8,29.45,NNW,337,5.0,10.0,92,0.00,,,0.02,Wunderground v.1.15,2013-05-06 10:31:00,
2013-05-06 05:36:00,50.0,47.5,29.46,NW,316,7.0,10.0,91,0.00,,,0.02,Wunderground v.1.15,2013-05-06 10:36:00,
2013-05-06 05:41:00,50.1,47.9,29.46,NW,318,5.0,7.0,92,0.00,,,0.02,Wunderground v.1.15,2013-05-06 10:41:00,
2013-05-06 05:46:00,50.1,47.9,29.46,NW,323,6.0,9.0,92,0.00,,,0.02,Wunderground v.1.15,2013-05-06 10:46:00,
2013-05-06 05:51:00,50.1,47.9,29.46,WNW,298,4.0,7.0,92,0.00,,,0.02,Wunderground v.1.15,2013-05-06 10:51:00,
2013-05-06 05:56:00,50.0,47.8,29.47,NNW,342,10.0,13.0,92,0.00,,,0.02,Wunderground v.1.15,2013-05-06 10:56:00,
2013-05-06 06:01:00,49.9,47.7,29.47,NW,322,9.0,12.0,92,0.00,,,0.02,Wunderground v.1.15,2013-05-06 11:01:00,
2013-05-06 06:06:00,49.8,47.9,29.47,NW,321,8.0,12.0,93,0.00,,,0.02,Wunderground v.1.15,2013-05-06 11:06:00,
2013-05-06 06:11:00,49.9,48.0,29.47,NW,322,3.0,8.0,93,0.00,,,0.02,Wunderground v.1.15,2013-05-06 11:11:00,
2013-05-06 06:16:00,49.9,48.0,29.47,NW,311,6.0,11.0,93,0.00,,,0.02,Wunderground v.1.15,2013-05-06 11:16:00,
2013-05-06 06:21:00,49.9,48.0,29.47,North,4,8.0,8.0,93,0.00,,,0.02,Wunderground v.1.15,2013-05-06 11:21:00,
2013-05-06 06:26:00,49.8,47.9,29.47,NW,311,6.0,10.0,93,0.00,,,0.02,Wunderground v.1.15,2013-05-06 11:26:00,
2013-05-06 06:31:00,49.8,47.9,29.48,WNW,299,6.0,12.0,93,0.00,,,0.02,Wunderground v.1.15,2013-05-06 11:31:00,
2013-05-06 06:36:00,49.8,47.9,29.48,NW,321,6.0,12.0,93,0.00,,,0.02,Wunderground v.1.15,2013-05-06 11:36:00,
2013-05-06 06:41:00,49.9,48.0,29.48,NW,319,3.0,7.0,93,0.00,,,0.02,Wunderground v.1.15,2013-05-06 11:41:00,
2013-05-06 06:46:00,49.8,47.9,29.48,WNW,297,6.0,12.0,93,0.00,,,0.02,Wunderground v.1.15,2013-05-06 11:46:00,
2013-05-06 06:51:00,49.7,48.0,29.48,WNW,300,5.0,9.0,94,0.00,,,0.02,Wunderground v.1.15,2013-05-06 11:51:00,
2013-05-06 06:56:00,49.6,47.9,29.48,NNW,331,6.0,10.0,94,0.00,,,0.02,Wunderground v.1.15,2013-05-06 11:56:00,
2013-05-06 07:01:00,49.7,48.0,29.48,NW,310,2.0,9.0,94,0.00,,,0.02,Wunderground v.1.15,2013-05-06 12:01:00,
2013-05-06 07:06:00,49.7,48.0,29.48,NW,318,5.0,9.0,94,0.00,,,0.02,Wunderground v.1.15,2013-05-06 12:06:00,
2013-05-06 07:11:00,49.8,48.1,29.48,NW,321,7.0,7.0,94,0.00,,,0.02,Wunderground v.1.15,2013-05-06 12:11:00,
2013-05-06 07:16:00,49.8,48.1,29.48,NW,321,8.0,11.0,94,0.00,,,0.02,Wunderground v.1.15,2013-05-06 12:16:00,
2013-05-06 07:21:00,49.8,48.4,29.48,NW,316,7.0,7.0,95,0.00,,,0.02,Wunderground v.1.15,2013-05-06 12:21:00,
2013-05-06 07:26:00,49.7,48.3,29.49,WNW,302,5.0,9.0,95,0.00,,,0.02,Wunderground v.1.15,2013-05-06 12:26:00,
2013-05-06 07:31:00,49.6,48.2,29.49,NW,317,2.0,10.0,95,0.00,,,0.02,Wunderground v.1.15,2013-05-06 12:31:00,
2013-05-06 07:36:00,49.7,48.6,29.49,NW,314,9.0,10.0,96,0.00,,,0.03,Wunderground v.1.15,2013-05-06 12:36:00,
2013-05-06 07:41:00,49.7,48.6,29.49,North,355,5.0,9.0,96,0.00,,,0.03,Wunderground v.1.15,2013-05-06 12:41:00,
2013-05-06 07:46:00,49.8,48.7,29.49,NW,325,4.0,9.0,96,0.00,,,0.03,Wunderground v.1.15,2013-05-06 12:46:00,
2013-05-06 07:51:00,50.0,48.9,29.49,NW,326,4.0,6.0,96,0.00,,,0.03,Wunderground v.1.15,2013-05-06 12:51:00,
2013-05-06 07:56:00,50.1,49.0,29.48,NNW,329,2.0,6.0,96,0.00,,,0.03,Wunderground v.1.15,2013-05-06 12:56:00,
2013-05-06 08:01:00,50.0,48.9,29.48,WNW,301,3.0,5.0,96,0.00,,,0.03,Wunderground v.1.15,2013-05-06 13:01:00,
2013-05-06 08:06:00,50.1,49.0,29.48,NNW,329,5.0,9.0,96,0.00,,,0.03,Wunderground v.1.15,2013-05-06 13:06:00,
2013-05-06 08:11:00,50.3,49.2,29.48,NNE,13,4.0,8.0,96,0.00,,,0.03,Wunderground v.1.15,2013-05-06 13:11:00,
2013-05-06 08:16:00,50.4,49.0,29.49,NW,319,4.0,11.0,95,0.00,,,0.03,Wunderground v.1.15,2013-05-06 13:16:00,
2013-05-06 08:21:00,50.6,49.2,29.49,WNW,290,0.0,5.0,95,0.00,,,0.03,Wunderground v.1.15,2013-05-06 13:21:00,
2013-05-06 08:26:00,50.6,49.2,29.49,North,349,7.0,10.0,95,0.00,,,0.03,Wunderground v.1.15,2013-05-06 13:26:00,
2013-05-06 08:31:00,50.7,49.3,29.49,NW,319,4.0,8.0,95,0.00,,,0.03,Wunderground v.1.15,2013-05-06 13:31:00,
2013-05-06 08:36:00,50.7,49.3,29.49,NW,316,4.0,8.0,95,0.00,,,0.03,Wunderground v.1.15,2013-05-06 13:36:00,
2013-05-06 08:41:00,50.8,49.4,29.49,East,91,2.0,9.0,95,0.00,,,0.03,Wunderground v.1.15,2013-05-06 13:41:00,
2013-05-06 08:46:00,50.9,49.5,29.49,NNW,348,5.0,9.0,95,0.00,,,0.03,Wunderground v.1.15,2013-05-06 13:46:00,
2013-05-06 08:51:00,51.0,49.3,29.49,NW,320,3.0,7.0,94,0.00,,,0.03,Wunderground v.1.15,2013-05-06 13:51:00,
2013-05-06 08:56:00,51.3,49.9,29.49,NNW,340,7.0,8.0,95,0.00,,,0.03,Wunderground v.1.15,2013-05-06 13:56:00,
2013-05-06 09:01:00,51.4,49.7,29.49,NNW,340,8.0,9.0,94,0.00,,,0.03,Wunderground v.1.15,2013-05-06 14:01:00,
2013-05-06 09:06:00,51.6,49.9,29.49,NW,318,2.0,9.0,94,0.00,,,0.03,Wunderground v.1.15,2013-05-06 14:06:00,
2013-05-06 09:11:00,51.7,50.0,29.49,NW,321,3.0,5.0,94,0.00,,,0.03,Wunderground v.1.15,2013-05-06 14:11:00,
2013-05-06 09:16:00,51.9,50.2,29.49,NNW,331,3.0,7.0,94,0.00,,,0.03,Wunderground v.1.15,2013-05-06 14:16:00,
2013-05-06 09:21:00,51.9,49.9,29.49,NNE,18,2.0,5.0,93,0.00,,,0.03,Wunderground v.1.15,2013-05-06 14:21:00,
2013-05-06 09:26:00,52.2,50.5,29.49,WNW,292,2.0,6.0,94,0.00,,,0.03,Wunderground v.1.15,2013-05-06 14:26:00,
2013-05-06 09:31:00,52.4,50.4,29.49,NNW,338,5.0,6.0,93,0.00,,,0.03,Wunderground v.1.15,2013-05-06 14:31:00,
2013-05-06 09:36:00,52.6,50.6,29.49,NNW,329,6.0,8.0,93,0.00,,,0.03,Wunderground v.1.15,2013-05-06 14:36:00,
2013-05-06 09:41:00,52.8,50.8,29.50,ENE,63,7.0,8.0,93,0.00,,,0.03,Wunderground v.1.15,2013-05-06 14:41:00,
2013-05-06 09:46:00,53.1,51.1,29.50,NW,314,4.0,9.0,93,0.00,,,0.03,Wunderground v.1.15,2013-05-06 14:46:00,
2013-05-06 09:51:00,53.2,50.6,29.50,WNW,290,3.0,8.0,91,0.00,,,0.03,Wunderground v.1.15,2013-05-06 14:51:00,
2013-05-06 09:56:00,53.4,50.8,29.49,NNE,23,5.0,8.0,91,0.00,,,0.03,Wunderground v.1.15,2013-05-06 14:56:00,
2013-05-06 10:01:00,53.6,51.0,29.49,NE,46,8.0,8.0,91,0.00,,,0.03,Wunderground v.1.15,2013-05-06 15:01:00,
2013-05-06 10:06:00,53.9,51.3,29.49,NW,311,4.0,8.0,91,0.00,,,0.00,Wunderground v.1.15,2013-05-06 15:06:00,
2013-05-06 10:11:00,54.2,51.3,29.49,NW,319,4.0,8.0,90,0.00,,,0.00,Wunderground v.1.15,2013-05-06 15:11:00,
2013-05-06 10:16:00,54.3,51.4,29.49,NNW,342,6.0,11.0,90,0.00,,,0.00,Wunderground v.1.15,2013-05-06 15:16:00,
2013-05-06 10:21:00,54.4,51.2,29.49,NNW,337,9.0,13.0,89,0.00,,,0.00,Wunderground v.1.15,2013-05-06 15:21:00,
2013-05-06 10:26:00,54.4,51.2,29.49,NW,323,7.0,14.0,89,0.00,,,0.00,Wunderground v.1.15,2013-05-06 15:26:00,
2013-05-06 10:31:00,54.4,51.2,29.50,NW,304,9.0,14.0,89,0.00,,,0.00,Wunderground v.1.15,2013-05-06 15:31:00,
2013-05-06 10:36:00,54.3,51.1,29.50,North,4,8.0,14.0,89,0.00,,,0.00,Wunderground v.1.15,2013-05-06 15:36:00,
2013-05-06 10:41:00,54.4,51.2,29.50,NW,317,8.0,12.0,89,0.00,,,0.00,Wunderground v.1.15,2013-05-06 15:41:00,
2013-05-06 10:46:00,54.4,51.2,29.50,NNW,329,10.0,14.0,89,0.00,,,0.00,Wunderground v.1.15,2013-05-06 15:46:00,
2013-05-06 10:51:00,54.4,51.2,29.50,NW,316,7.0,14.0,89,0.00,,,0.00,Wunderground v.1.15,2013-05-06 15:51:00,
2013-05-06 10:56:00,54.4,51.2,29.50,NW,317,9.0,14.0,89,0.00,,,0.00,Wunderground v.1.15,2013-05-06 15:56:00,
2013-05-06 11:01:00,54.5,51.6,29.50,North,358,6.0,10.0,90,0.00,,,0.00,Wunderground v.1.15,2013-05-06 16:01:00,
2013-05-06 11:06:00,54.6,51.4,29.50,NW,314,7.0,14.0,89,0.00,,,0.00,Wunderground v.1.15,2013-05-06 16:06:00,
2013-05-06 11:11:00,54.8,51.6,29.50,NNW,340,8.0,10.0,89,0.00,,,0.00,Wunderground v.1.15,2013-05-06 16:11:00,
2013-05-06 11:16:00,54.9,51.7,29.50,NNW,329,8.0,10.0,89,0.00,,,0.00,Wunderground v.1.15,2013-05-06 16:16:00,
2013-05-06 11:21:00,55.1,51.6,29.50,NNW,335,6.0,9.0,88,0.00,,,0.00,Wunderground v.1.15,2013-05-06 16:21:00,
2013-05-06 11:26:00,55.1,51.6,29.50,NW,314,4.0,10.0,88,0.00,,,0.00,Wunderground v.1.15,2013-05-06 16:26:00,
2013-05-06 11:31:00,55.2,52.0,29.50,NW,321,5.0,5.0,89,0.00,,,0.00,Wunderground v.1.15,2013-05-06 16:31:00,
2013-05-06 11:36:00,55.2,52.0,29.50,WNW,302,7.0,10.0,89,0.00,,,0.00,Wunderground v.1.15,2013-05-06 16:36:00,
2013-05-06 11:41:00,55.2,52.0,29.50,NNW,328,7.0,9.0,89,0.00,,,0.00,Wunderground v.1.15,2013-05-06 16:41:00,
2013-05-06 11:46:00,55.2,52.0,29.50,NNE,19,6.0,12.0,89,0.00,,,0.00,Wunderground v.1.15,2013-05-06 16:46:00,
2013-05-06 11:51:00,55.4,51.9,29.50,NE,51,5.0,11.0,88,0.00,,,0.00,Wunderground v.1.15,2013-05-06 16:51:00,
2013-05-06 11:56:00,55.6,51.8,29.50,North,353,4.0,11.0,87,0.00,,,0.00,Wunderground v.1.15,2013-05-06 16:56:00,
2013-05-06 12:01:00,55.7,51.9,29.50,NNW,335,4.0,6.0,87,0.00,,,0.00,Wunderground v.1.15,2013-05-06 17:01:00,
2013-05-06 12:06:00,55.8,52.3,29.50,North,356,7.0,7.0,88,0.00,,,0.00,Wunderground v.1.15,2013-05-06 17:06:00,
2013-05-06 12:11:00,55.7,51.9,29.50,NNW,329,2.0,5.0,87,0.00,,,0.00,Wunderground v.1.15,2013-05-06 17:11:00,
2013-05-06 12:16:00,55.8,52.0,29.50,ENE,70,3.0,6.0,87,0.00,,,0.00,Wunderground v.1.15,2013-05-06 17:16:00,
2013-05-06 12:21:00,55.9,52.4,29.50,North,358,1.0,4.0,88,0.00,,,0.00,Wunderground v.1.15,2013-05-06 17:21:00,
2013-05-06 12:26:00,55.8,52.3,29.50,NNE,27,3.0,8.0,88,0.00,,,0.00,Wunderground v.1.15,2013-05-06 17:26:00,
2013-05-06 12:31:00,55.6,52.1,29.50,NNW,337,3.0,5.0,88,0.00,,,0.00,Wunderground v.1.15,2013-05-06 17:31:00,
2013-05-06 12:36:00,55.5,52.3,29.51,North,6,4.0,7.0,89,0.00,,,0.00,Wunderground v.1.15,2013-05-06 17:36:00,
2013-05-06 12:41:00,55.5,52.3,29.50,NW,321,2.0,6.0,89,0.00,,,0.00,Wunderground v.1.15,2013-05-06 17:41:00,
2013-05-06 12:46:00,55.5,52.0,29.50,NW,312,1.0,10.0,88,0.00,,,0.00,Wunderground v.1.15,2013-05-06 17:46:00,
2013-05-06 12:51:00,55.7,52.2,29.50,NNE,28,11.0,12.0,88,0.00,,,0.00,Wunderground v.1.15,2013-05-06 17:51:00,
2013-05-06 12:56:00,55.7,52.2,29.50,NNW,335,8.0,13.0,88,0.00,,,0.00,Wunderground v.1.15,2013-05-06 17:56:00,
2013-05-06 13:01:00,55.7,52.5,29.50,NE,49,2.0,5.0,89,0.00,,,0.00,Wunderground v.1.15,2013-05-06 18:01:00,
2013-05-06 13:06:00,55.7,52.5,29.50,North,11,4.0,6.0,89,0.00,,,0.00,Wunderground v.1.15,2013-05-06 18:06:00,
2013-05-06 13:11:00,55.8,52.9,29.50,NNW,344,6.0,7.0,90,0.00,,,0.00,Wunderground v.1.15,2013-05-06 18:11:00,
2013-05-06 13:16:00,56.2,52.4,29.50,NW,304,5.0,11.0,87,0.00,,,0.00,Wunderground v.1.15,2013-05-06 18:16:00,
2013-05-06 13:21:00,56.8,53.0,29.50,NW,321,6.0,10.0,87,0.00,,,0.00,Wunderground v.1.15,2013-05-06 18:21:00,
2013-05-06 13:26:00,57.5,52.7,29.50,North,4,9.0,13.0,84,0.00,,,0.00,Wunderground v.1.15,2013-05-06 18:26:00,
2013-05-06 13:31:00,57.7,52.6,29.50,NNW,337,12.0,14.0,83,0.00,,,0.00,Wunderground v.1.15,2013-05-06 18:31:00,
2013-05-06 13:36:00,58.0,52.9,29.50,NW,316,6.0,14.0,83,0.00,,,0.00,Wunderground v.1.15,2013-05-06 18:36:00,
2013-05-06 13:41:00,58.1,53.0,29.50,NW,321,4.0,8.0,83,0.00,,,0.00,Wunderground v.1.15,2013-05-06 18:41:00,
2013-05-06 13:46:00,58.2,52.7,29.50,NW,314,8.0,13.0,82,0.00,,,0.00,Wunderground v.1.15,2013-05-06 18:46:00,
2013-05-06 13:51:00,58.9,53.1,29.50,NW,313,7.0,12.0,81,0.00,,,0.00,Wunderground v.1.15,2013-05-06 18:51:00,
2013-05-06 13:56:00,58.9,53.1,29.50,NW,318,9.0,13.0,81,0.00,,,0.00,Wunderground v.1.15,2013-05-06 18:56:00,
2013-05-06 14:01:00,59.3,53.5,29.50,NW,309,6.0,10.0,81,0.00,,,0.00,Wunderground v.1.15,2013-05-06 19:01:00,
2013-05-06 14:06:00,59.7,53.2,29.50,NW,323,10.0,11.0,79,0.00,,,0.00,Wunderground v.1.15,2013-05-06 19:06:00,
2013-05-06 14:11:00,59.6,52.4,29.50,NW,323,9.0,11.0,77,0.00,,,0.00,Wunderground v.1.15,2013-05-06 19:11:00,
2013-05-06 14:16:00,59.2,52.3,29.50,NW,323,7.0,17.0,78,0.00,,,0.00,Wunderground v.1.15,2013-05-06 19:16:00,
2013-05-06 14:21:00,59.3,52.8,29.50,NNE,23,11.0,13.0,79,0.00,,,0.00,Wunderground v.1.15,2013-05-06 19:21:00,
2013-05-06 14:26:00,59.4,52.9,29.50,NW,325,5.0,13.0,79,0.00,,,0.00,Wunderground v.1.15,2013-05-06 19:26:00,
2013-05-06 14:31:00,59.0,52.1,29.50,NE,37,12.0,14.0,78,0.00,,,0.00,Wunderground v.1.15,2013-05-06 19:31:00,
2013-05-06 14:36:00,58.7,52.2,29.50,NNW,329,5.0,14.0,79,0.00,,,0.00,Wunderground v.1.15,2013-05-06 19:36:00,
2013-05-06 14:41:00,58.7,52.5,29.50,NNW,342,6.0,8.0,80,0.00,,,0.00,Wunderground v.1.15,2013-05-06 19:41:00,
2013-05-06 14:46:00,59.1,52.6,29.50,WSW,248,5.0,12.0,79,0.00,,,0.00,Wunderground v.1.15,2013-05-06 19:46:00,
2013-05-06 14:51:00,59.5,52.3,29.50,ENE,59,5.0,11.0,77,0.00,,,0.00,Wunderground v.1.15,2013-05-06 19:51:00,
2013-05-06 14:56:00,59.7,52.8,29.50,NW,316,6.0,11.0,78,0.00,,,0.00,Wunderground v.1.15,2013-05-06 19:56:00,
2013-05-06 15:01:00,60.4,53.5,29.49,North,352,5.0,10.0,78,0.00,,,0.00,Wunderground v.1.15,2013-05-06 20:01:00,
2013-05-06 15:06:00,61.4,53.8,29.49,NW,311,8.0,10.0,76,0.00,,,0.00,Wunderground v.1.15,2013-05-06 20:06:00,
2013-05-06 15:11:00,61.9,53.1,29.49,NNE,18,10.0,11.0,73,0.00,,,0.00,Wunderground v.1.15,2013-05-06 20:11:00,
2013-05-06 15:16:00,62.2,53.8,29.49,NW,311,9.0,12.0,74,0.00,,,0.00,Wunderground v.1.15,2013-05-06 20:16:00,
2013-05-06 15:21:00,62.4,52.9,29.49,NW,311,4.0,15.0,71,0.00,,,0.00,Wunderground v.1.15,2013-05-06 20:21:00,
2013-05-06 15:26:00,61.9,52.4,29.48,NW,316,7.0,15.0,71,0.00,,,0.00,Wunderground v.1.15,2013-05-06 20:26:00,
2013-05-06 15:31:00,61.7,53.3,29.48,NNW,335,8.0,13.0,74,0.00,,,0.00,Wunderground v.1.15,2013-05-06 20:31:00,
2013-05-06 15:36:00,61.7,53.3,29.48,NNW,345,9.0,13.0,74,0.00,,,0.00,Wunderground v.1.15,2013-05-06 20:36:00,
2013-05-06 15:41:00,61.5,53.1,29.48,NW,316,6.0,11.0,74,0.00,,,0.00,Wunderground v.1.15,2013-05-06 20:41:00,
2013-05-06 15:46:00,61.3,53.3,29.48,WNW,300,5.0,12.0,75,0.00,,,0.00,Wunderground v.1.15,2013-05-06 20:46:00,
2013-05-06 15:51:00,61.5,53.5,29.48,North,349,5.0,10.0,75,0.00,,,0.00,Wunderground v.1.15,2013-05-06 20:51:00,
2013-05-06 15:56:00,61.6,53.6,29.48,WNW,291,2.0,10.0,75,0.00,,,0.00,Wunderground v.1.15,2013-05-06 20:56:00,
2013-05-06 16:01:00,62.3,53.9,29.48,WNW,299,14.0,14.0,74,0.00,,,0.00,Wunderground v.1.15,2013-05-06 21:01:00,
2013-05-06 16:06:00,61.9,53.5,29.48,WNW,291,7.0,14.0,74,0.00,,,0.00,Wunderground v.1.15,2013-05-06 21:06:00,
2013-05-06 16:10:00,61.9,53.5,29.48,WNW,292,12.0,12.0,74,0.00,,,0.00,Wunderground v.1.15,2013-05-06 21:10:00,
2013-05-06 16:15:00,61.8,53.4,29.48,WNW,302,8.0,13.0,74,0.00,,,0.00,Wunderground v.1.15,2013-05-06 21:15:00,
2013-05-06 16:20:00,62.2,54.2,29.48,NW,323,8.0,10.0,75,0.00,,,0.00,Wunderground v.1.15,2013-05-06 21:20:00,
2013-05-06 16:25:00,62.4,54.0,29.48,NNW,336,8.0,15.0,74,0.00,,,0.00,Wunderground v.1.15,2013-05-06 21:25:00,
2013-05-06 16:30:00,62.0,53.6,29.48,WNW,295,9.0,12.0,74,0.00,,,0.00,Wunderground v.1.15,2013-05-06 21:30:00,
2013-05-06 16:35:00,61.7,53.3,29.48,NW,314,12.0,17.0,74,0.00,,,0.00,Wunderground v.1.15,2013-05-06 21:35:00,
2013-05-06 16:40:00,61.5,53.1,29.48,NW,311,7.0,16.0,74,0.00,,,0.00,Wunderground v.1.15,2013-05-06 21:40:00,
2013-05-06 16:45:00,61.3,53.3,29.48,North,357,13.0,18.0,75,0.00,,,0.00,Wunderground v.1.15,2013-05-06 21:45:00,
2013-05-06 16:50:00,60.9,53.3,29.49,NW,321,12.0,16.0,76,0.00,,,0.00,Wunderground v.1.15,2013-05-06 21:50:00,
2013-05-06 16:55:00,60.6,53.3,29.49,North,349,5.0,16.0,77,0.00,,,0.00,Wunderground v.1.15,2013-05-06 21:55:00,
2013-05-06 17:00:00,60.6,53.3,29.49,NW,319,8.0,12.0,77,0.00,,,0.00,Wunderground v.1.15,2013-05-06 22:00:00,
2013-05-06 17:05:00,60.5,53.6,29.49,NNW,327,6.0,12.0,78,0.00,,,0.00,Wunderground v.1.15,2013-05-06 22:05:00,
2013-05-06 17:10:00,60.4,53.2,29.50,NW,320,8.0,10.0,77,0.00,,,0.00,Wunderground v.1.15,2013-05-06 22:10:00,
2013-05-06 17:15:00,60.3,53.1,29.49,NW,322,9.0,15.0,77,0.00,,,0.00,Wunderground v.1.15,2013-05-06 22:15:00,
2013-05-06 17:20:00,60.3,53.1,29.50,WNW,290,8.0,12.0,77,0.00,,,0.00,Wunderground v.1.15,2013-05-06 22:20:00,
2013-05-06 17:25:00,60.3,53.1,29.50,NW,317,9.0,12.0,77,0.00,,,0.00,Wunderground v.1.15,2013-05-06 22:25:00,
2013-05-06 17:30:00,60.2,53.3,29.50,NNW,335,8.0,9.0,78,0.00,,,0.00,Wunderground v.1.15,2013-05-06 22:30:00,
2013-05-06 17:35:00,60.1,53.6,29.50,NW,317,10.0,13.0,79,0.00,,,0.00,Wunderground v.1.15,2013-05-06 22:35:00,
2013-05-06 17:40:00,60.1,53.6,29.50,NW,321,10.0,12.0,79,0.00,,,0.00,Wunderground v.1.15,2013-05-06 22:40:00,
2013-05-06 17:45:00,60.0,53.5,29.50,West,274,9.0,12.0,79,0.00,,,0.00,Wunderground v.1.15,2013-05-06 22:45:00,
2013-05-06 17:50:00,59.9,53.4,29.51,NW,307,8.0,10.0,79,0.00,,,0.00,Wunderground v.1.15,2013-05-06 22:50:00,
2013-05-06 17:55:00,59.9,53.7,29.51,NW,308,5.0,11.0,80,0.00,,,0.00,Wunderground v.1.15,2013-05-06 22:55:00,
2013-05-06 18:00:00,59.8,53.6,29.51,North,6,6.0,9.0,80,0.00,,,0.00,Wunderground v.1.15,2013-05-06 23:00:00,
2013-05-06 18:05:00,59.8,53.6,29.51,North,350,6.0,12.0,80,0.00,,,0.00,Wunderground v.1.15,2013-05-06 23:05:00,
2013-05-06 18:10:00,59.7,53.9,29.51,NW,317,6.0,6.0,81,0.00,,,0.00,Wunderground v.1.15,2013-05-06 23:10:00,
2013-05-06 18:15:00,59.5,53.7,29.52,NW,326,7.0,11.0,81,0.00,,,0.00,Wunderground v.1.15,2013-05-06 23:15:00,
2013-05-06 18:20:00,59.4,53.9,29.52,NNW,330,6.0,7.0,82,0.00,,,0.00,Wunderground v.1.15,2013-05-06 23:20:00,
2013-05-06 18:25:00,59.2,53.4,29.52,NW,318,8.0,13.0,81,0.00,,,0.00,Wunderground v.1.15,2013-05-06 23:25:00,
2013-05-06 18:30:00,58.9,53.1,29.52,NNW,342,7.0,10.0,81,0.00,,,0.00,Wunderground v.1.15,2013-05-06 23:30:00,
2013-05-06 18:35:00,58.7,53.2,29.52,NNW,337,4.0,11.0,82,0.00,,,0.00,Wunderground v.1.15,2013-05-06 23:35:00,
2013-05-06 18:40:00,58.6,53.5,29.52,NW,321,3.0,9.0,83,0.00,,,0.00,Wunderground v.1.15,2013-05-06 23:40:00,
2013-05-06 18:45:00,58.4,53.3,29.53,NNE,15,10.0,12.0,83,0.00,,,0.00,Wunderground v.1.15,2013-05-06 23:45:00,
2013-05-06 18:50:00,58.2,53.4,29.53,North,353,8.0,12.0,84,0.00,,,0.00,Wunderground v.1.15,2013-05-06 23:50:00,
2013-05-06 18:55:00,58.1,53.3,29.53,NW,318,7.0,13.0,84,0.00,,,0.00,Wunderground v.1.15,2013-05-06 23:55:00,
2013-05-06 19:00:00,58.1,53.6,29.53,NW,323,8.0,12.0,85,0.00,,,0.00,Wunderground v.1.15,2013-05-07 00:00:00,
2013-05-06 19:05:00,57.7,53.5,29.53,NW,326,5.0,15.0,86,0.00,,,0.00,Wunderground v.1.15,2013-05-07 00:05:00,
2013-05-06 19:10:00,57.5,53.7,29.53,NW,316,6.0,9.0,87,0.00,,,0.00,Wunderground v.1.15,2013-05-07 00:10:00,
2013-05-06 19:15:00,57.2,54.0,29.53,WNW,295,4.0,12.0,89,0.00,,,0.00,Wunderground v.1.15,2013-05-07 00:15:00,
2013-05-06 19:20:00,56.9,53.7,29.53,NNW,331,6.0,9.0,89,0.00,,,0.00,Wunderground v.1.15,2013-05-07 00:20:00,
2013-05-06 19:25:00,56.7,53.5,29.53,East,83,2.0,11.0,89,0.00,,,0.00,Wunderground v.1.15,2013-05-07 00:25:00,
2013-05-06 19:30:00,56.6,53.4,29.53,NW,322,4.0,7.0,89,0.00,,,0.00,Wunderground v.1.15,2013-05-07 00:30:00,
2013-05-06 19:35:00,56.4,53.2,29.53,NW,316,7.0,11.0,89,0.00,,,0.00,Wunderground v.1.15,2013-05-07 00:35:00,
2013-05-06 19:40:00,56.2,53.0,29.53,NW,321,6.0,9.0,89,0.00,,,0.00,Wunderground v.1.15,2013-05-07 00:40:00,
2013-05-06 19:45:00,56.1,53.2,29.52,WNW,292,7.0,9.0,90,0.00,,,0.00,Wunderground v.1.15,2013-05-07 00:45:00,
2013-05-06 19:50:00,56.0,53.1,29.53,NW,306,5.0,9.0,90,0.00,,,0.00,Wunderground v.1.15,2013-05-07 00:50:00,
2013-05-06 19:55:00,55.8,53.2,29.53,WNW,284,5.0,10.0,91,0.00,,,0.00,Wunderground v.1.15,2013-05-07 00:55:00,
2013-05-06 20:00:00,55.8,53.2,29.53,NW,307,4.0,8.0,91,0.00,,,0.00,Wunderground v.1.15,2013-05-07 01:00:00,
2013-05-06 20:05:00,55.8,53.5,29.53,NW,309,7.0,10.0,92,0.00,,,0.00,Wunderground v.1.15,2013-05-07 01:05:00,
2013-05-06 20:10:00,55.8,53.5,29.53,NW,311,3.0,6.0,92,0.00,,,0.00,Wunderground v.1.15,2013-05-07 01:10:00,
2013-05-06 20:15:00,55.7,53.4,29.54,NNW,342,5.0,13.0,92,0.00,,,0.00,Wunderground v.1.15,2013-05-07 01:15:00,
2013-05-06 20:20:00,55.7,53.7,29.54,WNW,303,5.0,8.0,93,0.00,,,0.00,Wunderground v.1.15,2013-05-07 01:20:00,
2013-05-06 20:25:00,55.6,53.6,29.54,WNW,295,4.0,8.0,93,0.00,,,0.00,Wunderground v.1.15,2013-05-07 01:25:00,
2013-05-06 20:30:00,55.5,53.5,29.54,WNW,293,3.0,5.0,93,0.00,,,0.00,Wunderground v.1.15,2013-05-07 01:30:00,
2013-05-06 20:35:00,55.5,53.5,29.54,WNW,285,1.0,7.0,93,0.00,,,0.00,Wunderground v.1.15,2013-05-07 01:35:00,
2013-05-06 20:40:00,55.4,53.4,29.54,WNW,297,3.0,4.0,93,0.00,,,0.00,Wunderground v.1.15,2013-05-07 01:40:00,
2013-05-06 20:45:00,55.4,53.4,29.54,WNW,298,2.0,6.0,93,0.00,,,0.00,Wunderground v.1.15,2013-05-07 01:45:00,
2013-05-06 20:50:00,55.4,53.4,29.54,WNW,300,5.0,5.0,93,0.00,,,0.00,Wunderground v.1.15,2013-05-07 01:50:00,
2013-05-06 20:55:00,55.5,53.5,29.54,NW,311,2.0,6.0,93,0.00,,,0.00,Wunderground v.1.15,2013-05-07 01:55:00,
2013-05-06 21:00:00,55.4,53.4,29.55,West,277,0.0,2.0,93,0.00,,,0.00,Wunderground v.1.15,2013-05-07 02:00:00,
2013-05-06 21:05:00,55.4,53.4,29.55,WSW,254,3.0,5.0,93,0.00,,,0.00,Wunderground v.1.15,2013-05-07 02:05:00,
2013-05-06 21:10:00,55.4,53.4,29.54,West,271,1.0,3.0,93,0.00,,,0.00,Wunderground v.1.15,2013-05-07 02:10:00,
2013-05-06 21:15:00,55.4,53.4,29.54,NW,307,2.0,3.0,93,0.00,,,0.00,Wunderground v.1.15,2013-05-07 02:15:00,
2013-05-06 21:20:00,55.5,53.5,29.55,WNW,285,0.0,2.0,93,0.00,,,0.00,Wunderground v.1.15,2013-05-07 02:20:00,
2013-05-06 21:25:00,55.5,53.5,29.55,NW,307,2.0,6.0,93,0.00,,,0.00,Wunderground v.1.15,2013-05-07 02:25:00,
2013-05-06 21:30:00,55.5,53.5,29.55,WNW,297,3.0,5.0,93,0.00,,,0.00,Wunderground v.1.15,2013-05-07 02:30:00,
2013-05-06 21:35:00,55.5,53.5,29.55,WNW,290,2.0,5.0,93,0.00,,,0.00,Wunderground v.1.15,2013-05-07 02:35:00,
2013-05-06 21:40:00,55.5,53.5,29.55,SW,224,0.0,2.0,93,0.00,,,0.00,Wunderground v.1.15,2013-05-07 02:40:00,
2013-05-06 21:45:00,55.5,53.5,29.55,NNW,340,1.0,4.0,93,0.00,,,0.00,Wunderground v.1.15,2013-05-07 02:45:00,
2013-05-06 21:50:00,55.5,53.5,29.56,NW,314,1.0,3.0,93,0.00,,,0.00,Wunderground v.1.15,2013-05-07 02:50:00,
2013-05-06 21:55:00,55.4,53.4,29.56,WNW,288,2.0,4.0,93,0.00,,,0.00,Wunderground v.1.15,2013-05-07 02:55:00,
2013-05-06 22:00:00,55.5,53.5,29.56,NW,322,1.0,1.0,93,0.00,,,0.00,Wunderground v.1.15,2013-05-07 03:00:00,
2013-05-06 22:05:00,55.5,53.5,29.56,WNW,301,1.0,4.0,93,0.00,,,0.00,Wunderground v.1.15,2013-05-07 03:05:00,
2013-05-06 22:10:00,55.4,53.4,29.55,West,281,1.0,3.0,93,0.00,,,0.00,Wunderground v.1.15,2013-05-07 03:10:00,
2013-05-06 22:15:00,55.4,53.4,29.55,NW,304,0.0,5.0,93,0.00,,,0.00,Wunderground v.1.15,2013-05-07 03:15:00,
2013-05-06 22:20:00,55.4,53.4,29.56,WNW,285,0.0,1.0,93,0.00,,,0.00,Wunderground v.1.15,2013-05-07 03:20:00,
2013-05-06 22:25:00,55.3,53.3,29.56,West,259,1.0,5.0,93,0.00,,,0.00,Wunderground v.1.15,2013-05-07 03:25:00,
2013-05-06 22:30:00,55.3,53.3,29.55,NW,309,2.0,5.0,93,0.00,,,0.00,Wunderground v.1.15,2013-05-07 03:30:00,
2013-05-06 22:35:00,55.3,53.3,29.55,WNW,293,0.0,5.0,93,0.00,,,0.00,Wunderground v.1.15,2013-05-07 03:35:00,
2013-05-06 22:40:00,55.2,53.2,29.55,WNW,301,0.0,2.0,93,0.00,,,0.00,Wunderground v.1.15,2013-05-07 03:40:00,
2013-05-06 22:45:00,55.2,53.2,29.55,NNW,329,2.0,5.0,93,0.00,,,0.00,Wunderground v.1.15,2013-05-07 03:45:00,
2013-05-06 22:50:00,55.2,53.2,29.55,WNW,290,7.0,7.0,93,0.00,,,0.00,Wunderground v.1.15,2013-05-07 03:50:00,
2013-05-06 22:55:00,55.2,53.5,29.55,WNW,299,3.0,7.0,94,0.00,,,0.00,Wunderground v.1.15,2013-05-07 03:55:00,
2013-05-06 23:00:00,55.2,53.5,29.55,NNW,335,1.0,3.0,94,0.00,,,0.00,Wunderground v.1.15,2013-05-07 04:00:00,
2013-05-06 23:01:00,55.1,53.4,29.55,NW,304,2.0,3.0,94,0.00,,,0.00,Wunderground v.1.15,2013-05-07 04:01:00,
2013-05-06 23:06:00,55.1,53.4,29.55,WNW,299,2.0,5.0,94,0.00,,,0.00,Wunderground v.1.15,2013-05-07 04:06:00,
2013-05-06 23:11:00,55.1,53.4,29.55,WNW,283,2.0,3.0,94,0.00,,,0.00,Wunderground v.1.15,2013-05-07 04:11:00,
2013-05-06 23:16:00,55.1,53.4,29.55,WNW,297,3.0,5.0,94,0.00,,,0.00,Wunderground v.1.15,2013-05-07 04:16:00,
2013-05-06 23:21:00,55.0,53.3,29.55,WNW,284,0.0,1.0,94,0.00,,,0.00,Wunderground v.1.15,2013-05-07 04:21:00,
2013-05-06 23:26:00,54.8,53.1,29.55,WNW,286,0.0,2.0,94,0.00,,,0.00,Wunderground v.1.15,2013-05-07 04:26:00,
2013-05-06 23:31:00,54.7,53.3,29.55,NW,306,0.0,0.0,95,0.00,,,0.00,Wunderground v.1.15,2013-05-07 04:31:00,
2013-05-06 23:36:00,54.6,52.9,29.55,NW,307,0.0,1.0,94,0.00,,,0.00,Wunderground v.1.15,2013-05-07 04:36:00,
2013-05-06 23:41:00,54.5,53.1,29.55,NW,317,0.0,1.0,95,0.00,,,0.00,Wunderground v.1.15,2013-05-07 04:41:00,
2013-05-06 23:46:00,54.4,53.0,29.55,WNW,290,1.0,3.0,95,0.00,,,0.00,Wunderground v.1.15,2013-05-07 04:46:00,
2013-05-06 23:51:00,54.4,53.0,29.55,NW,306,0.0,1.0,95,0.00,,,0.00,Wunderground v.1.15,2013-05-07 04:51:00,
2013-05-06 23:56:00,54.3,52.9,29.55,NW,304,0.0,3.0,95,0.00,,,0.00,Wunderground v.1.15,2013-05-07 04:56:00,